NKS3511 KLAX-KMIA

Flight info

Callsign NKS3511
Flight time N/A
Altitude 35000
Route DOTSS2 CNERY BLH SALOM EWM CRGER/N0443F370 IAH J86 LEV BACCA Y290 GAWKS FROGZ4
Aircraft A320/M-SDE3FGHIRWY/LB1

Departure

Time 2026-05-07 09:31
Airport Los Angeles International Airport (KLAX)

Arrival

Time N/A
Airport Miami International Airport (KMIA)
Time Latitude Longitude Altitude Speed Heading
2026-05-07 09:02 33.94674 -118.40333 126 ft 0 kts 265°
2026-05-07 09:16 33.94675 -118.40309 121 ft 4 kts 265°
2026-05-07 09:16 33.94676 -118.40283 122 ft 4 kts 279°
2026-05-07 09:17 33.94667 -118.40255 120 ft 4 kts 322°
2026-05-07 09:17 33.94651 -118.40246 122 ft 1 kts 353°
2026-05-07 09:17 33.94648 -118.40246 123 ft 0 kts 353°
2026-05-07 09:20 33.94653 -118.40246 121 ft 1 kts 353°
2026-05-07 09:20 33.94668 -118.40249 120 ft 3 kts 353°
2026-05-07 09:20 33.94692 -118.40252 121 ft 4 kts 353°
2026-05-07 09:21 33.94738 -118.40259 124 ft 9 kts 353°
2026-05-07 09:21 33.94801 -118.40283 123 ft 10 kts 316°
2026-05-07 09:21 33.94806 -118.40369 125 ft 11 kts 261°
2026-05-07 09:21 33.94794 -118.40471 125 ft 13 kts 262°
2026-05-07 09:22 33.94782 -118.40588 125 ft 15 kts 263°
2026-05-07 09:22 33.94771 -118.40719 125 ft 17 kts 264°
2026-05-07 09:22 33.94757 -118.40863 124 ft 18 kts 263°
2026-05-07 09:22 33.94740 -118.41019 125 ft 20 kts 262°
2026-05-07 09:23 33.94721 -118.41167 124 ft 16 kts 255°
2026-05-07 09:23 33.94661 -118.41277 122 ft 17 kts 191°
2026-05-07 09:23 33.94543 -118.41263 124 ft 18 kts 174°
2026-05-07 09:23 33.94411 -118.41245 123 ft 20 kts 173°
2026-05-07 09:24 33.94272 -118.41222 123 ft 21 kts 173°
2026-05-07 09:24 33.94121 -118.41200 123 ft 22 kts 173°
2026-05-07 09:24 33.93963 -118.41176 124 ft 24 kts 173°
2026-05-07 09:24 33.93850 -118.41137 122 ft 15 kts 114°
2026-05-07 09:25 33.93858 -118.41010 126 ft 16 kts 83°
2026-05-07 09:25 33.93872 -118.40870 126 ft 18 kts 83°
2026-05-07 09:25 33.93887 -118.40717 124 ft 19 kts 83°
2026-05-07 09:25 33.93906 -118.40551 126 ft 21 kts 82°
2026-05-07 09:26 33.93924 -118.40372 126 ft 22 kts 84°
2026-05-07 09:26 33.93942 -118.40181 122 ft 24 kts 82°
2026-05-07 09:26 33.93963 -118.39980 124 ft 25 kts 83°
2026-05-07 09:26 33.93985 -118.39768 124 ft 26 kts 83°
2026-05-07 09:27 33.94007 -118.39556 125 ft 20 kts 83°
2026-05-07 09:27 33.94024 -118.39384 125 ft 21 kts 83°
2026-05-07 09:27 33.94049 -118.39033 122 ft 17 kts 120°
2026-05-07 09:28 33.93987 -118.38927 122 ft 17 kts 85°
2026-05-07 09:28 33.94005 -118.38779 125 ft 19 kts 82°
2026-05-07 09:28 33.94020 -118.38617 125 ft 20 kts 84°
2026-05-07 09:28 33.94038 -118.38444 123 ft 19 kts 82°
2026-05-07 09:29 33.94045 -118.38359 125 ft 7 kts 92°
2026-05-07 09:29 33.94006 -118.38328 123 ft 8 kts 174°
2026-05-07 09:29 33.93955 -118.38343 122 ft 8 kts 243°
2026-05-07 09:29 33.93945 -118.38404 125 ft 1 kts 264°
2026-05-07 09:30 33.93924 -118.38620 122 ft 60 kts 263°
2026-05-07 09:30 33.93846 -118.39362 126 ft 116 kts 263°
2026-05-07 09:30 33.93727 -118.40507 124 ft 157 kts 263°
2026-05-07 09:31 33.93626 -118.41914 475 ft 167 kts 264°
2026-05-07 09:31 33.93495 -118.43292 1134 ft 166 kts 263°
2026-05-07 09:31 33.93346 -118.44683 1709 ft 168 kts 262°
2026-05-07 09:31 33.92995 -118.46064 2032 ft 183 kts 242°
2026-05-07 09:32 33.92206 -118.47369 2186 ft 203 kts 230°
2026-05-07 09:32 33.91274 -118.48759 2419 ft 222 kts 231°
2026-05-07 09:32 33.90247 -118.50278 2671 ft 246 kts 230°
2026-05-07 09:32 33.89105 -118.51915 3159 ft 262 kts 230°
2026-05-07 09:33 33.87915 -118.53604 3921 ft 267 kts 231°
2026-05-07 09:33 33.86529 -118.55114 4656 ft 275 kts 212°
2026-05-07 09:33 33.84694 -118.55851 5357 ft 284 kts 186°
2026-05-07 09:33 33.82718 -118.55626 6104 ft 288 kts 167°
2026-05-07 09:34 33.80754 -118.55086 6886 ft 290 kts 166°
2026-05-07 09:34 33.78794 -118.54493 7629 ft 291 kts 158°
2026-05-07 09:34 33.77094 -118.53286 8347 ft 289 kts 134°
2026-05-07 09:34 33.75906 -118.51378 9124 ft 284 kts 111°
2026-05-07 09:35 33.75359 -118.49120 10136 ft 281 kts 101°
2026-05-07 09:35 33.74909 -118.46752 10673 ft 302 kts 101°
2026-05-07 09:35 33.74422 -118.44194 11043 ft 325 kts 101°
2026-05-07 09:35 33.73903 -118.41491 11710 ft 336 kts 101°
2026-05-07 09:36 33.73370 -118.38730 12535 ft 343 kts 101°
2026-05-07 09:36 33.72823 -118.35916 13393 ft 348 kts 101°
2026-05-07 09:36 33.72267 -118.33061 14177 ft 354 kts 101°
2026-05-07 09:36 33.71704 -118.30166 14679 ft 358 kts 101°
2026-05-07 09:37 33.71135 -118.27243 15192 ft 361 kts 101°
2026-05-07 09:37 33.70560 -118.24297 15684 ft 364 kts 101°
2026-05-07 09:37 33.69979 -118.21320 16166 ft 368 kts 101°
2026-05-07 09:37 33.69393 -118.18315 16635 ft 371 kts 100°
2026-05-07 09:38 33.68803 -118.15282 17126 ft 374 kts 100°
2026-05-07 09:38 33.68214 -118.12266 17614 ft 377 kts 100°
2026-05-07 09:38 33.67612 -118.09186 18103 ft 381 kts 100°
2026-05-07 09:38 33.67004 -118.06072 18581 ft 384 kts 100°
2026-05-07 09:39 33.66392 -118.02946 19042 ft 386 kts 100°
2026-05-07 09:39 33.65771 -117.99797 19500 ft 389 kts 100°
2026-05-07 09:39 33.65146 -117.96629 19952 ft 391 kts 100°
2026-05-07 09:39 33.64517 -117.93437 20395 ft 394 kts 100°
2026-05-07 09:40 33.63885 -117.90225 20834 ft 396 kts 99°
2026-05-07 09:40 33.63251 -117.86999 21255 ft 399 kts 99°
2026-05-07 09:40 33.62709 -117.83732 21654 ft 398 kts 91°
2026-05-07 09:40 33.62656 -117.80400 22044 ft 399 kts 86°
2026-05-07 09:41 33.62663 -117.77064 22444 ft 401 kts 86°
2026-05-07 09:41 33.62677 -117.73703 22834 ft 404 kts 86°
2026-05-07 09:41 33.62696 -117.70327 23221 ft 406 kts 86°
2026-05-07 09:41 33.62717 -117.66926 23601 ft 409 kts 86°
2026-05-07 09:42 33.62736 -117.63502 23932 ft 411 kts 86°
2026-05-07 09:42 33.62755 -117.60063 24255 ft 413 kts 86°
2026-05-07 09:42 33.62768 -117.56600 24582 ft 415 kts 86°
2026-05-07 09:42 33.62779 -117.53127 24896 ft 417 kts 86°
2026-05-07 09:43 33.62786 -117.49640 25214 ft 419 kts 86°
2026-05-07 09:43 33.62795 -117.46136 25546 ft 421 kts 86°
2026-05-07 09:43 33.62801 -117.42617 25863 ft 423 kts 86°
2026-05-07 09:43 33.62806 -117.39130 26168 ft 425 kts 86°
2026-05-07 09:44 33.62810 -117.35576 26487 ft 427 kts 86°
2026-05-07 09:44 33.62815 -117.32003 26798 ft 429 kts 86°
2026-05-07 09:44 33.62818 -117.28414 27109 ft 431 kts 86°
2026-05-07 09:44 33.62821 -117.24809 27418 ft 433 kts 86°
2026-05-07 09:45 33.62822 -117.21186 27722 ft 435 kts 86°
2026-05-07 09:45 33.62819 -117.17550 28070 ft 437 kts 86°
2026-05-07 09:45 33.62815 -117.13911 28532 ft 435 kts 86°
2026-05-07 09:45 33.62811 -117.10285 28989 ft 434 kts 86°
2026-05-07 09:46 33.62808 -117.06673 29434 ft 433 kts 86°
2026-05-07 09:46 33.62806 -117.03067 29869 ft 432 kts 86°
2026-05-07 09:46 33.62801 -116.99461 30304 ft 431 kts 86°
2026-05-07 09:46 33.62793 -116.95879 30683 ft 429 kts 86°
2026-05-07 09:47 33.62783 -116.92303 31062 ft 428 kts 86°
2026-05-07 09:47 33.62775 -116.88730 31429 ft 427 kts 86°
2026-05-07 09:47 33.62763 -116.85162 31807 ft 426 kts 86°
2026-05-07 09:47 33.62751 -116.81612 32177 ft 425 kts 86°
2026-05-07 09:48 33.62742 -116.78068 32562 ft 424 kts 86°
2026-05-07 09:48 33.62738 -116.75726 32809 ft 424 kts 86°
2026-05-07 09:48 33.62730 -116.72192 33162 ft 423 kts 86°
2026-05-07 09:48 33.62718 -116.68660 33482 ft 423 kts 86°
2026-05-07 09:49 33.62703 -116.65140 33854 ft 422 kts 86°
2026-05-07 09:49 33.62679 -116.60476 34261 ft 421 kts 86°
2026-05-07 09:49 33.62666 -116.58103 34453 ft 421 kts 86°
2026-05-07 09:49 33.62648 -116.54595 34755 ft 420 kts 86°
2026-05-07 09:50 33.62629 -116.51087 34978 ft 420 kts 86°
2026-05-07 09:50 33.62592 -116.44053 35019 ft 430 kts 86°
2026-05-07 09:51 33.62548 -116.36804 34994 ft 437 kts 86°
2026-05-07 09:51 33.62493 -116.29502 34996 ft 438 kts 86°
2026-05-07 09:52 33.62441 -116.22198 34981 ft 437 kts 86°
2026-05-07 09:52 33.62379 -116.14911 34980 ft 437 kts 86°
2026-05-07 09:53 33.62315 -116.07629 34981 ft 437 kts 86°
2026-05-07 09:53 33.62247 -116.00339 34994 ft 437 kts 86°
2026-05-07 09:54 33.62172 -115.93054 35008 ft 436 kts 86°
2026-05-07 09:54 33.62091 -115.85819 35004 ft 436 kts 86°
2026-05-07 09:55 33.62014 -115.78548 34995 ft 436 kts 86°
2026-05-07 09:55 33.61935 -115.71273 34992 ft 435 kts 86°
2026-05-07 09:56 33.61850 -115.64012 35001 ft 435 kts 86°
2026-05-07 09:56 33.61747 -115.56744 34998 ft 435 kts 86°
2026-05-07 09:57 33.61591 -115.49492 34990 ft 435 kts 87°
2026-05-07 09:57 33.61399 -115.42236 34987 ft 435 kts 87°
2026-05-07 09:58 33.61214 -115.35037 34989 ft 434 kts 87°
2026-05-07 09:58 33.61034 -115.27793 34993 ft 434 kts 87°
2026-05-07 09:59 33.60851 -115.20559 34988 ft 433 kts 87°
2026-05-07 09:59 33.60661 -115.13337 34982 ft 433 kts 87°
2026-05-07 10:00 33.60460 -115.06110 34981 ft 433 kts 87°
2026-05-07 10:00 33.60259 -114.98885 35008 ft 433 kts 87°
2026-05-07 10:01 33.60057 -114.91672 35009 ft 432 kts 87°
2026-05-07 10:01 33.59851 -114.84484 35010 ft 431 kts 87°
2026-05-07 10:02 33.59641 -114.77301 35007 ft 430 kts 87°
2026-05-07 10:02 33.59224 -114.70127 35005 ft 433 kts 91°
2026-05-07 10:03 33.58521 -114.62994 34997 ft 433 kts 92°
2026-05-07 10:03 33.57794 -114.55829 34996 ft 433 kts 91°
2026-05-07 10:04 33.57133 -114.48657 34993 ft 433 kts 91°
2026-05-07 10:04 33.56497 -114.41483 34990 ft 433 kts 91°
2026-05-07 10:05 33.55852 -114.34304 34988 ft 433 kts 91°
2026-05-07 10:05 33.55198 -114.27136 34994 ft 432 kts 91°
2026-05-07 10:06 33.54532 -114.19968 34993 ft 432 kts 91°
2026-05-07 10:06 33.53865 -114.12803 34997 ft 432 kts 91°
2026-05-07 10:07 33.53197 -114.05637 35015 ft 432 kts 91°
2026-05-07 10:07 33.52533 -113.98527 35018 ft 432 kts 91°
2026-05-07 10:08 33.51861 -113.91382 35015 ft 431 kts 92°
2026-05-07 10:08 33.50832 -113.84283 35010 ft 434 kts 97°
2026-05-07 10:09 33.49600 -113.77206 35010 ft 433 kts 97°
2026-05-07 10:09 33.48378 -113.70140 35019 ft 433 kts 97°
2026-05-07 10:10 33.47158 -113.63090 35016 ft 432 kts 97°
2026-05-07 10:10 33.45935 -113.56051 35012 ft 431 kts 97°
2026-05-07 10:11 33.44705 -113.49026 35007 ft 431 kts 97°
2026-05-07 10:11 33.43477 -113.42012 35018 ft 430 kts 97°
2026-05-07 10:12 33.42245 -113.35022 35011 ft 429 kts 97°
2026-05-07 10:12 33.41008 -113.28039 35006 ft 428 kts 97°
2026-05-07 10:13 33.39770 -113.21081 35004 ft 427 kts 97°
2026-05-07 10:13 33.38530 -113.14128 34995 ft 427 kts 97°
2026-05-07 10:14 33.37291 -113.07181 34999 ft 427 kts 98°
2026-05-07 10:14 33.36049 -113.00228 34995 ft 428 kts 98°
2026-05-07 10:15 33.34796 -112.93262 35005 ft 428 kts 98°
2026-05-07 10:15 33.33545 -112.86335 35010 ft 429 kts 98°
2026-05-07 10:16 33.32282 -112.79366 35043 ft 429 kts 98°
2026-05-07 10:16 33.31017 -112.72402 35041 ft 429 kts 99°
2026-05-07 10:17 33.29744 -112.65434 35030 ft 429 kts 99°
2026-05-07 10:17 33.28470 -112.58473 35021 ft 429 kts 99°
2026-05-07 10:18 33.27201 -112.51513 35015 ft 429 kts 99°
2026-05-07 10:18 33.25922 -112.44551 34975 ft 429 kts 99°
2026-05-07 10:19 33.24634 -112.37594 34974 ft 429 kts 99°
2026-05-07 10:19 33.23342 -112.30631 34973 ft 430 kts 99°
2026-05-07 10:20 33.22042 -112.23662 34972 ft 430 kts 99°
2026-05-07 10:20 33.20743 -112.16693 34992 ft 430 kts 99°
2026-05-07 10:21 33.19448 -112.09752 34979 ft 431 kts 101°
2026-05-07 10:21 33.18132 -112.02745 34978 ft 433 kts 101°
2026-05-07 10:22 33.16809 -111.95710 34987 ft 435 kts 101°
2026-05-07 10:22 33.15479 -111.88661 34997 ft 436 kts 101°
2026-05-07 10:23 33.14137 -111.81591 35004 ft 437 kts 101°
2026-05-07 10:23 33.12791 -111.74525 34991 ft 438 kts 102°
2026-05-07 10:24 33.11435 -111.67425 34977 ft 440 kts 102°
2026-05-07 10:24 33.10075 -111.60308 34982 ft 441 kts 102°
2026-05-07 10:25 33.08708 -111.53184 34955 ft 441 kts 102°
2026-05-07 10:25 33.07330 -111.46049 34958 ft 442 kts 103°
2026-05-07 10:26 33.05932 -111.38880 34954 ft 444 kts 103°
2026-05-07 10:26 33.04539 -111.31702 34949 ft 445 kts 103°
2026-05-07 10:27 33.03146 -111.24501 34961 ft 446 kts 103°
2026-05-07 10:27 33.01742 -111.17285 34967 ft 447 kts 103°
2026-05-07 10:28 33.00327 -111.10069 34966 ft 448 kts 104°
2026-05-07 10:28 32.98906 -111.02871 34962 ft 450 kts 104°
2026-05-07 10:29 32.97476 -110.95610 34976 ft 451 kts 104°
2026-05-07 10:29 32.96042 -110.88340 34981 ft 451 kts 104°
2026-05-07 10:30 32.93875 -110.77417 34965 ft 453 kts 106°
2026-05-07 10:30 32.92407 -110.70087 34968 ft 457 kts 106°
2026-05-07 10:31 32.90920 -110.62696 34991 ft 460 kts 106°
2026-05-07 10:31 32.90179 -110.59003 35377 ft 457 kts 106°
2026-05-07 10:31 32.89452 -110.55383 35709 ft 455 kts 107°
2026-05-07 10:32 32.88716 -110.51723 35983 ft 454 kts 107°
2026-05-07 10:32 32.87983 -110.48068 36227 ft 454 kts 107°
2026-05-07 10:32 32.87247 -110.44407 36393 ft 456 kts 108°
2026-05-07 10:32 32.86500 -110.40718 36535 ft 458 kts 108°
2026-05-07 10:33 32.85754 -110.37034 36710 ft 459 kts 108°
2026-05-07 10:33 32.85005 -110.33343 36907 ft 459 kts 108°
2026-05-07 10:33 32.83500 -110.25939 36997 ft 460 kts 108°
2026-05-07 10:34 32.81994 -110.18546 36996 ft 460 kts 108°
2026-05-07 10:34 32.80484 -110.11146 36991 ft 462 kts 109°
2026-05-07 10:35 32.78953 -110.03698 36988 ft 465 kts 109°
2026-05-07 10:35 32.77677 -109.97497 36987 ft 464 kts 109°
2026-05-07 10:36 32.76135 -109.90043 36985 ft 465 kts 109°
2026-05-07 10:36 32.74336 -109.81362 36983 ft 465 kts 109°
2026-05-07 10:37 32.73041 -109.75110 36958 ft 466 kts 110°
2026-05-07 10:37 32.71481 -109.67629 37038 ft 468 kts 110°
2026-05-07 10:38 32.69906 -109.60115 37037 ft 469 kts 110°
2026-05-07 10:38 32.68332 -109.52650 37031 ft 470 kts 110°
2026-05-07 10:39 32.66743 -109.45128 36997 ft 470 kts 110°
2026-05-07 10:39 32.65149 -109.37571 36967 ft 473 kts 111°
2026-05-07 10:40 32.63543 -109.29984 36952 ft 475 kts 111°
2026-05-07 10:40 32.61923 -109.22369 36959 ft 477 kts 111°
2026-05-07 10:41 32.60301 -109.14743 36963 ft 477 kts 111°
2026-05-07 10:41 32.58666 -109.07102 36959 ft 479 kts 112°
2026-05-07 10:42 32.57035 -108.99473 36962 ft 481 kts 112°
2026-05-07 10:42 32.55376 -108.91782 36980 ft 482 kts 112°
2026-05-07 10:43 32.53706 -108.84084 36983 ft 482 kts 112°
2026-05-07 10:43 32.52042 -108.76385 36966 ft 483 kts 112°
2026-05-07 10:44 32.50367 -108.68674 36941 ft 484 kts 113°
2026-05-07 10:44 32.48680 -108.60942 36952 ft 485 kts 113°
2026-05-07 10:45 32.46985 -108.53190 36941 ft 486 kts 112°
2026-05-07 10:45 32.45280 -108.45430 36987 ft 487 kts 113°
2026-05-07 10:46 32.43575 -108.37704 37004 ft 489 kts 113°
2026-05-07 10:46 32.41854 -108.29911 37039 ft 489 kts 113°
2026-05-07 10:47 32.40129 -108.22117 37056 ft 490 kts 113°
2026-05-07 10:47 32.38393 -108.14308 37055 ft 490 kts 113°
2026-05-07 10:48 32.36653 -108.06502 37037 ft 491 kts 113°
2026-05-07 10:48 32.34910 -107.98693 36988 ft 491 kts 114°
2026-05-07 10:49 32.33163 -107.90891 36969 ft 491 kts 114°
2026-05-07 10:49 32.31409 -107.83091 36969 ft 491 kts 114°
2026-05-07 10:50 32.30531 -107.79198 37163 ft 490 kts 114°
2026-05-07 10:50 32.29652 -107.75304 37163 ft 491 kts 114°
2026-05-07 10:50 32.27885 -107.67512 37148 ft 491 kts 114°
2026-05-07 10:51 32.26111 -107.59710 37143 ft 492 kts 114°
2026-05-07 10:51 32.24333 -107.51916 37091 ft 491 kts 114°
2026-05-07 10:52 32.22553 -107.44123 37044 ft 491 kts 114°
2026-05-07 10:52 32.20766 -107.36332 36969 ft 492 kts 114°
2026-05-07 10:53 32.18982 -107.28591 36960 ft 492 kts 114°
2026-05-07 10:53 32.17178 -107.20778 37011 ft 493 kts 114°
2026-05-07 10:54 32.15370 -107.12962 37052 ft 494 kts 114°
2026-05-07 10:54 32.13558 -107.05139 37085 ft 494 kts 114°
2026-05-07 10:55 32.11740 -106.97311 37085 ft 495 kts 115°
2026-05-07 10:55 32.09908 -106.89480 37077 ft 495 kts 115°
2026-05-07 10:56 32.08068 -106.81637 37048 ft 496 kts 115°
2026-05-07 10:56 32.06226 -106.73802 37081 ft 496 kts 115°
2026-05-07 10:57 32.04381 -106.65959 37083 ft 497 kts 115°
2026-05-07 10:57 32.02520 -106.58101 37059 ft 498 kts 115°
2026-05-07 10:58 32.00649 -106.50216 37043 ft 500 kts 115°
2026-05-07 10:58 31.98775 -106.42316 37074 ft 501 kts 115°
2026-05-07 10:59 31.96889 -106.34408 37064 ft 502 kts 115°
2026-05-07 10:59 31.95060 -106.26511 37067 ft 508 kts 110°
2026-05-07 11:00 31.93765 -106.18300 37054 ft 511 kts 109°
2026-05-07 11:00 31.92481 -106.10060 37034 ft 512 kts 109°
2026-05-07 11:01 31.91185 -106.01812 37019 ft 512 kts 109°
2026-05-07 11:01 31.89878 -105.93565 36988 ft 513 kts 109°
2026-05-07 11:02 31.88560 -105.85307 37008 ft 513 kts 109°
2026-05-07 11:02 31.87241 -105.77049 36997 ft 514 kts 109°
2026-05-07 11:03 31.85920 -105.68786 37008 ft 514 kts 109°
2026-05-07 11:03 31.84586 -105.60515 37000 ft 515 kts 109°
2026-05-07 11:04 31.83249 -105.52297 37007 ft 516 kts 109°
2026-05-07 11:04 31.81903 -105.44002 37010 ft 516 kts 109°
2026-05-07 11:05 31.80559 -105.35694 37019 ft 517 kts 109°
2026-05-07 11:05 31.79202 -105.27389 36998 ft 517 kts 109°
2026-05-07 11:06 31.77823 -105.19092 37008 ft 517 kts 109°
2026-05-07 11:06 31.76459 -105.10839 37028 ft 518 kts 109°
2026-05-07 11:07 31.75086 -105.02526 37034 ft 518 kts 109°
2026-05-07 11:07 31.73696 -104.94229 37037 ft 518 kts 110°
2026-05-07 11:08 31.72295 -104.85911 37015 ft 519 kts 110°
2026-05-07 11:08 31.70894 -104.77585 37027 ft 520 kts 110°
2026-05-07 11:09 31.69494 -104.69238 37034 ft 520 kts 110°
2026-05-07 11:09 31.68085 -104.60917 37053 ft 520 kts 110°
2026-05-07 11:10 31.66668 -104.52581 37052 ft 520 kts 110°
2026-05-07 11:10 31.65253 -104.44301 37065 ft 520 kts 110°
2026-05-07 11:11 31.63824 -104.35979 37064 ft 520 kts 110°
2026-05-07 11:11 31.62386 -104.27659 37075 ft 520 kts 110°
2026-05-07 11:12 31.60944 -104.19340 37058 ft 521 kts 110°
2026-05-07 11:12 31.59505 -104.11005 37062 ft 521 kts 110°
2026-05-07 11:13 31.58047 -104.02668 37066 ft 522 kts 110°
2026-05-07 11:13 31.56582 -103.94338 37051 ft 522 kts 110°
2026-05-07 11:14 31.55116 -103.86017 37049 ft 521 kts 110°
2026-05-07 11:14 31.53663 -103.77739 37049 ft 522 kts 110°
2026-05-07 11:15 31.52187 -103.69415 37095 ft 522 kts 110°
2026-05-07 11:15 31.50700 -103.61092 37134 ft 522 kts 110°
2026-05-07 11:16 31.49208 -103.52757 37162 ft 523 kts 110°
2026-05-07 11:16 31.47718 -103.44421 37144 ft 523 kts 110°
2026-05-07 11:17 31.46216 -103.36093 37138 ft 523 kts 110°
2026-05-07 11:17 31.44710 -103.27759 37104 ft 523 kts 110°
2026-05-07 11:18 31.43205 -103.19431 37076 ft 522 kts 110°
2026-05-07 11:18 31.41690 -103.11120 37008 ft 522 kts 110°
2026-05-07 11:19 31.40158 -103.02809 36988 ft 522 kts 111°
2026-05-07 11:19 31.38636 -102.94506 37012 ft 522 kts 111°
2026-05-07 11:20 31.37105 -102.86197 37028 ft 522 kts 111°
2026-05-07 11:20 31.35580 -102.77965 37030 ft 521 kts 111°
2026-05-07 11:21 31.34035 -102.69630 37024 ft 521 kts 111°
2026-05-07 11:21 31.32509 -102.61406 37027 ft 521 kts 111°
2026-05-07 11:22 31.30963 -102.53126 37028 ft 521 kts 111°
2026-05-07 11:22 31.29401 -102.44847 37040 ft 521 kts 111°
2026-05-07 11:23 31.27838 -102.36573 37032 ft 521 kts 111°
2026-05-07 11:23 31.26270 -102.28288 37044 ft 522 kts 111°
2026-05-07 11:24 31.24959 -102.21400 37042 ft 523 kts 111°
2026-05-07 11:24 31.23377 -102.13101 37054 ft 522 kts 111°
2026-05-07 11:25 31.21537 -102.03475 37041 ft 522 kts 111°
2026-05-07 11:25 31.20213 -101.96533 37052 ft 522 kts 111°
2026-05-07 11:26 31.18621 -101.88251 37063 ft 522 kts 111°
2026-05-07 11:26 31.17012 -101.79980 37067 ft 522 kts 111°
2026-05-07 11:27 31.15405 -101.71704 37077 ft 522 kts 111°
2026-05-07 11:27 31.13791 -101.63436 37070 ft 522 kts 111°
2026-05-07 11:28 31.12173 -101.55172 37076 ft 523 kts 111°
2026-05-07 11:28 31.10552 -101.46885 37074 ft 524 kts 111°
2026-05-07 11:29 31.08931 -101.38644 37088 ft 524 kts 111°
2026-05-07 11:29 31.07293 -101.30362 37096 ft 524 kts 111°
2026-05-07 11:30 31.05650 -101.22073 37089 ft 525 kts 111°
2026-05-07 11:30 31.04003 -101.13775 37092 ft 525 kts 112°
2026-05-07 11:31 31.02350 -101.05481 37078 ft 525 kts 111°
2026-05-07 11:31 31.00690 -100.97201 37090 ft 524 kts 112°
2026-05-07 11:32 30.98187 -100.84796 37103 ft 524 kts 112°
2026-05-07 11:33 30.96518 -100.76527 37099 ft 524 kts 112°
2026-05-07 11:33 30.94837 -100.68275 37097 ft 523 kts 112°
2026-05-07 11:34 30.93151 -100.60032 37103 ft 523 kts 112°
2026-05-07 11:34 30.91474 -100.51779 37094 ft 524 kts 112°
2026-05-07 11:35 30.89792 -100.43526 37087 ft 524 kts 112°
2026-05-07 11:35 30.88092 -100.35274 37078 ft 524 kts 112°
2026-05-07 11:36 30.86382 -100.27025 37081 ft 524 kts 112°
2026-05-07 11:36 30.84679 -100.18841 37069 ft 524 kts 112°
2026-05-07 11:37 30.82974 -100.10585 37068 ft 524 kts 112°
2026-05-07 11:37 30.81248 -100.02289 37084 ft 524 kts 112°
2026-05-07 11:38 30.79532 -99.94117 37094 ft 524 kts 112°
2026-05-07 11:38 30.77809 -99.85889 37106 ft 524 kts 112°
2026-05-07 11:39 30.76072 -99.77670 37109 ft 523 kts 112°
2026-05-07 11:39 30.74328 -99.69471 37115 ft 522 kts 112°
2026-05-07 11:40 30.72590 -99.61278 37127 ft 522 kts 112°
2026-05-07 11:40 30.70853 -99.53085 37106 ft 522 kts 112°
2026-05-07 11:41 30.69104 -99.44893 37105 ft 522 kts 112°
2026-05-07 11:41 30.67355 -99.36712 37097 ft 522 kts 112°
2026-05-07 11:42 30.65597 -99.28534 37103 ft 522 kts 112°
2026-05-07 11:42 30.63827 -99.20362 37103 ft 522 kts 112°
2026-05-07 11:43 30.62062 -99.12212 37090 ft 520 kts 112°
2026-05-07 11:43 30.60298 -99.04073 37104 ft 519 kts 111°
2026-05-07 11:44 30.58536 -98.95962 37116 ft 518 kts 111°
2026-05-07 11:44 30.56787 -98.87913 37134 ft 517 kts 112°
2026-05-07 11:45 30.55021 -98.79839 37138 ft 516 kts 112°
2026-05-07 11:45 30.53244 -98.71770 37139 ft 516 kts 112°
2026-05-07 11:46 30.51467 -98.63706 37133 ft 516 kts 112°
2026-05-07 11:46 30.49671 -98.55587 37118 ft 516 kts 112°
2026-05-07 11:47 30.47894 -98.47572 37113 ft 516 kts 112°
2026-05-07 11:47 30.46094 -98.39521 37146 ft 516 kts 112°
2026-05-07 11:48 30.44344 -98.31440 37139 ft 519 kts 109°
2026-05-07 11:48 30.43014 -98.23185 37128 ft 524 kts 105°
2026-05-07 11:49 30.41897 -98.14834 37126 ft 524 kts 105°
2026-05-07 11:49 30.40713 -98.06505 37139 ft 524 kts 107°
2026-05-07 11:50 30.39415 -97.98202 37145 ft 523 kts 107°
2026-05-07 11:50 30.38084 -97.89910 37136 ft 524 kts 107°
2026-05-07 11:51 30.36775 -97.81616 37132 ft 524 kts 107°
2026-05-07 11:51 30.35483 -97.73305 37120 ft 524 kts 107°
2026-05-07 11:52 30.34189 -97.64988 37119 ft 524 kts 107°
2026-05-07 11:52 30.32874 -97.56693 37111 ft 524 kts 107°
2026-05-07 11:53 30.31551 -97.48387 37109 ft 525 kts 107°
2026-05-07 11:53 30.30224 -97.40090 37092 ft 525 kts 107°
2026-05-07 11:54 30.28899 -97.31780 37095 ft 525 kts 107°
2026-05-07 11:54 30.27568 -97.23467 37077 ft 525 kts 107°
2026-05-07 11:55 30.26227 -97.15153 37078 ft 525 kts 108°
2026-05-07 11:55 30.24889 -97.06905 37056 ft 525 kts 108°
2026-05-07 11:56 30.23544 -96.98608 37040 ft 525 kts 108°
2026-05-07 11:56 30.22870 -96.94456 37145 ft 525 kts 108°
2026-05-07 11:56 30.22187 -96.90292 37142 ft 525 kts 108°